Flag for U.S.A. Weather past 2 weeks in Pensacola, Florida, U.S.A.

Now
75 °F

Clear.


Feels Like: 77 °F
Forecast: 68 / 86 °F
Wind: 9 mph from Northeast

Location: Pensacola Regional Airport

Current Time: Jul 30, 2014 at 2:06:16 AM

Latest Report: Jul 30, 2014 at 12:53 AM


Visibility: 10 mi

Pressure: 30.01 "Hg

Humidity: 69%

Dew point: 64 °F

Location of PensacolaLocation

Historic Weather in Pensacola — Graph

°F

Pensacola temperature yesterday

Maximum temperature yesterday: 87 °F (at 4:53 PM)
Minimum temperature yesterday: 72 °F (at 4:53 AM)
Average temperature yesterday: 79 °F

Past Weeks' High & Low Weather Summary

 TemperatureHumidityPressure
High92 °F (Jul 28, 1:53 PM)100% (Jul 18, 6:53 PM)30.09 "Hg (Jul 18, 6:53 PM)
Low66 °F (Jul 17, 5:53 AM)39% (Jul 16, 4:53 PM)29.88 "Hg (Jul 16, 2:53 AM)
Average79 °F80%30.00 "Hg
* Reported Jul 15 12:53 AM — Jul 30 12:53 AM, Pensacola, Weather by CustomWeather, © 2014

Note: Actual official high and low records may vary slightly from our data, if they occured in-between our weather recording intervals... More about our weather records

Advertising

Pensacola weather history for previous 24 hours

 ConditionsComfort  
Time TempWeatherWind HumidityBarometerVisibility
12:53 AM
Jul 30
75 °FClear.9 mph69%30.01 "Hg10 mi
11:53 PM
Jul 29
76 °FPassing clouds.6 mph69%30.01 "Hg10 mi
10:53 PM78 °FMostly cloudy.5 mph64%30.02 "Hg10 mi
9:53 PM77 °FPassing clouds.5 mph66%30.00 "Hg10 mi
8:53 PM78 °FClear.3 mph62%29.98 "Hg10 mi
7:53 PM79 °FClear.6 mph62%29.97 "Hg10 mi
6:53 PM83 °FSunny.9 mph50%29.96 "Hg10 mi
5:53 PM86 °FPassing clouds.9 mph43%29.96 "Hg10 mi
4:53 PM87 °FScattered clouds.12 mph42%29.97 "Hg10 mi
3:53 PM85 °FScattered clouds.9 mph45%29.97 "Hg10 mi
2:53 PM86 °FPassing clouds.9 mph45%29.99 "Hg10 mi
1:53 PM85 °FPassing clouds.12 mph46%30.00 "Hg10 mi
12:53 PM84 °FScattered clouds.8 mph49%30.01 "Hg10 mi
11:53 AM83 °FSunny.9 mph51%30.03 "Hg10 mi
10:53 AM82 °FSunny.8 mph56%30.04 "Hg10 mi
9:53 AM79 °FSunny.9 mph62%30.03 "Hg10 mi
8:53 AM77 °FSunny.9 mph71%30.03 "Hg10 mi
7:53 AM74 °FSunny.8 mph76%30.02 "Hg10 mi
6:53 AM72 °FPassing clouds.5 mph81%30.00 "Hg10 mi
5:53 AM72 °FPassing clouds.6 mph81%29.97 "Hg10 mi
4:53 AM72 °FPassing clouds.8 mph87%29.95 "Hg10 mi
3:53 AM73 °FClear.7 mph90%29.95 "Hg10 mi
2:53 AM75 °FClear.8 mph88%29.95 "Hg10 mi
Weather by CustomWeather, © 2014

See weather overviewHow to use our weather pages